Header for Extended Forecast Station List Page

Search by: ID | Name | Date | Parm | Value | Avg | % Avg
Sort by: ID | Name | Date | Parm | Value | Avg | % Avg

Enter search or view all records.

Click on id for station plot
#IDNameDateParmValueAvg% Avg
0MILI1SNAKE-AT MILNER12-09-2019DISCHARGE (KAF)347455
1STRM8ST. REGIS-NEAR ST. REGIS12-09-2019DISCHARGE (KAF)205736
2MONO3NF JOHN DAY-AT MONUMENT12-09-2019DISCHARGE (KAF)11527142
3CLFW1NACHES-NEAR CLIFFDEL12-09-2019DISCHARGE (KAF)6413547
4SERO3JOHN DAY-AT SERVICE CK12-09-2019DISCHARGE (KAF)21143948
5WGCM8MF FLATHEAD-NEAR WEST GLACIER12-09-2019DISCHARGE (KAF)7515349
6NACW1NACHES-NEAR NACHES12-09-2019DISCHARGE (KAF)6312550
7BERO3MALHEUR-AGENCY VALLEY DAM12-09-2019INFLOW (KAF)163250
8BUDW1BUMPING-BUMPING LAKE DAM12-09-2019INFLOW (KAF)193752
9RILW1TIETON-RIMROCK LAKE NEAR RIMROCK12-09-2019INFLOW (KAF)407553
10SATI1ST MARIES-NEAR SANTA12-09-2019DISCHARGE (KAF)397354
11KIOW1YAKIMA-AT KIONA12-09-2019DISCHARGE (KAF)46886954
12WRMO3MALHEUR-WARM SPRINGS DAM12-09-2019INFLOW (KAF)335955
13PRTI1PRIEST-NEAR PRIEST RIVER12-09-2019DISCHARGE (KAF)12722756
14PARW1YAKIMA-NEAR PARKER12-09-2019DISCHARGE (KAF)33958858
15SPDI1CLEARWATER-AT SPALDING12-09-2019DISCHARGE (KAF)1310225758
16LLKW1SPOKANE-AT LONGLAKE12-09-2019INFLOW (KAF)1059173361
17TRYO3GRANDE RONDE-TROY12-09-2019DISCHARGE (KAF)33453862
18EMMI1PAYETTE-NEAR EMMETT12-09-2019DISCHARGE (KAF)29546264
19LGDW1SNAKE-LOWER GRANITE DAM12-09-2019INFLOW (KAF)6043926665
20LGSW1SNAKE-LITTLE GOOSE DAM12-09-2019INFLOW (KAF)6043933165
21SWAI1SNAKE-BELOW SWAN FALLS12-09-2019DISCHARGE (KAF)1784270866
22LMNW1SNAKE-LOWER MONUMENTAL DAM12-09-2019INFLOW (KAF)6299957766
23IHDW1SNAKE-ICE HARBOR DAM12-09-2019INFLOW (KAF)6299949566
24KERM8FLATHEAD-KERR DAM12-09-2019INFLOW (KAF)1020152067
25EASW1YAKIMA-AT EASTON12-09-2019DISCHARGE (KAF)578567
26WEII1SNAKE-AT WEISER12-09-2019DISCHARGE (KAF)2860422068
27DEDI1DEADWOOD-NEAR LOWMAN12-09-2019INFLOW (KAF)142069
28ANAW1SNAKE-NEAR ANATONE12-09-2019DISCHARGE (KAF)4733684669
29COEI1COEUR D ALENE-COEUR D ALENE LAKE12-09-2019INFLOW (KAF)866123170
30TNAW1TEANAWAY-BELOW FORKS12-09-2019DISCHARGE (KAF)476870
31BRNI1SNAKE-BROWNLEE DAM12-09-2019INFLOW (KAF)3098442770
32ORFI1CLEARWATER-AT OROFINO12-09-2019DISCHARGE (KAF)732104270
33PITW1KLICKITAT-NEAR PITT12-09-2019DISCHARGE (KAF)28040270
34ALFW1PEND OREILLE-ALBENI FALLS DAM12-09-2019INFLOW (KAF)3366465972
35UMTW1YAKIMA-AT UMTANUM12-09-2019DISCHARGE (KAF)24734372
36BONO3COLUMBIA-BONNEVILLE DAM12-09-2019INFLOW (KAF)299524173372
37NOXM8CLARK FORK-NOXON RAPIDS DAM12-09-2019INFLOW (KAF)2755376673
38TONW1OKANOGAN-NEAR TONASKET12-09-2019DISCHARGE (KAF)21829873
39IPDI1HENRYS FORK-ISLAND PARK DAM12-09-2019INFLOW (KAF)8211274
40TDAO3COLUMBIA-THE DALLES DAM12-09-2019INFLOW (KAF)291833918574
41PIHI1PORTNEUF-AT POCATELLO12-09-2019DISCHARGE (KAF)597776
42ARAI1SF BOISE-ANDERSON RANCH DAM12-09-2019INFLOW (KAF)7610076
43CFMM8FLATHEAD-AT COLUMBIA FALLS12-09-2019DISCHARGE (KAF)882115277
44UMAO3UMATILLA-NEAR UMATILLA12-09-2019DISCHARGE (KAF)11515077
45CABI1CLARK FORK-CABINET GORGE DAM12-09-2019INFLOW (KAF)3049393078
46CHDW1CHELAN-LAKE CHELAN DAM12-09-2019INFLOW (KAF)13717778
47CSDI1NF PAYETTE-CASCADE DAM12-09-2019INFLOW (KAF)8911478
48PESW1WENATCHEE-AT PESHASTIN12-09-2019DISCHARGE (KAF)26133179
49CLUW1CLE ELUM-CLE ELUM LAKE12-09-2019INFLOW (KAF)8711079
50BFTI1SNAKE-NEAR BLACKFOOT12-09-2019DISCHARGE (KAF)65981181
51UNDW1WHITE SALMON-NEAR UNDERWOOD12-09-2019DISCHARGE (KAF)25231281
52RRHW1COLUMBIA-ROCKY REACH DAM12-09-2019INFLOW (KAF)199022412982
53JLKW4SNAKE-JACKSON LAKE AT DAM12-09-2019INFLOW (KAF)9711882
54MCDW1COLUMBIA-MCNARY DAM12-09-2019INFLOW (KAF)270623314082
55PDTO3UMATILLA-AT PENDLETON12-09-2019DISCHARGE (KAF)12014682
56JDAO3COLUMBIA-JOHN DAY DAM12-09-2019INFLOW (KAF)285733486082
57CHJW1COLUMBIA-CHIEF JOSEPH DAM12-09-2019INFLOW (KAF)192032316683
58WELW1COLUMBIA-WELLS DAM12-09-2019INFLOW (KAF)195202357683
59TCHW1WALLA WALLA-NEAR TOUCHET12-09-2019DISCHARGE (KAF)16519983
60FCFM8NF FLATHEAD-NEAR COLUMBIA FALLS12-09-2019DISCHARGE (KAF)14617285
61JKSW4SNAKE-NEAR JACKSON12-09-2019DISCHARGE (KAF)26030585
62ALPW4SNAKE-NEAR ALPINE12-09-2019DISCHARGE (KAF)32037585
63AFRI1SNAKE-AMERICAN FALLS RESERVOIR12-09-2019INFLOW (KAF)1307154185
64HOTI1BRUNEAU-NEAR HOT SPRINGS12-09-2019DISCHARGE (KAF)364385
65ARDW1ENTIAT-NEAR ARDENVOIR12-09-2019DISCHARGE (KAF)202486
66SNAI1SNAKE-AT BLACKFOOT12-09-2019DISCHARGE (KAF)65476486
67PLDI1SF SNAKE-PALISADES DAM12-09-2019INFLOW (KAF)52660587
68SHYI1SNAKE-NEAR SHELLEY12-09-2019DISCHARGE (KAF)73683788
69HHWM8SF FLATHEAD-HUNGRY HORSE DAM12-09-2019INFLOW (KAF)22225089
70TEAI1TETON-NEAR ST. ANTHONY12-09-2019DISCHARGE (KAF)879889
71HEII1SNAKE-NEAR HEISE12-09-2019DISCHARGE (KAF)51157289
72OWYO3OWYHEE-OWYHEE DAM12-09-2019INFLOW (KAF)16518689
73WHBI1SALMON-AT WHITEBIRD12-09-2019DISCHARGE (KAF)991111489
74DWRI1NF CLEARWATER-DWORSHAK DAM12-09-2019INFLOW (KAF)73981790
75PATW1METHOW-NEAR PATEROS12-09-2019DISCHARGE (KAF)9510491
76LWRI1LITTLE WOOD-LITTLE WOOD DAM12-09-2019INFLOW (KAF)171891
77HODO3HOOD-NEAR TUCKER BRIDGE12-09-2019DISCHARGE (KAF)25427991
78SIFI1SNAKE-AB EAGLE ROCK NR IDAHO FALLS12-09-2019DISCHARGE (KAF)75682292
79MODO3DESCHUTES-AT MOODY NR BIGGS12-09-2019DISCHARGE (KAF)1443157792
80KADW1KACHESS-KACHESS DAM12-09-2019INFLOW (KAF)475093
81PRWW1COLUMBIA-PRIEST RAPIDS DAM12-09-2019INFLOW (KAF)201632140094
82CHEI1FALL RIVER-NEAR CHESTER12-09-2019DISCHARGE (KAF)10311094
83DLGM8CLARK FORK-AT DEER LODGE12-09-2019DISCHARGE (KAF)596395
84WANW1COLUMBIA-WANAPUM DAM12-09-2019INFLOW (KAF)201602113395
85WSRI1WEISER-NEAR WEISER12-09-2019DISCHARGE (KAF)19620895
86LYDM8KOOTENAI-LIBBY DAM12-09-2019INFLOW (KAF)75678796
87SRGM8CLARK FORK-AT ST REGIS12-09-2019DISCHARGE (KAF)77180496
88REXI1HENRYS FORK-AT REXBURG12-09-2019DISCHARGE (KAF)41743596
89ANTI1HENRYS FORK-AT ST. ANTHONY12-09-2019DISCHARGE (KAF)34634999
90KEDW1YAKIMA-KEECHELUS LAKE12-09-2019INFLOW (KAF)5151101
91MAGI1BIG WOOD-MAGIC DAM12-09-2019INFLOW (KAF)4847101
92BITM8BITTERROOT-NEAR MISSOULA12-09-2019DISCHARGE (KAF)237233102
93LAUW1KETTLE-AT LAURIER12-09-2019DISCHARGE (KAF)154150103
94BELM8CLARK FORK-BELOW MISSOULA12-09-2019DISCHARGE (KAF)635594107
95HALI1BIG WOOD-AT HAILEY12-09-2019DISCHARGE (KAF)4139107
96GIBO3UMATILLA-NEAR GIBBON12-09-2019DISCHARGE (KAF)6055108
97GCDW1COLUMBIA-GRAND COULEE DAM12-09-2019INFLOW (KAF)1905617139111
98HWRI1BIG LOST-AT HOWELL RANCH NEAR CHILLY12-09-2019DISCHARGE (KAF)2119111
99ABOM8CLARK FORK-ABOVE MISSOULA12-09-2019DISCHARGE (KAF)398354112
100LEOI1KOOTENAI-AT LEONIA12-09-2019DISCHARGE (KAF)14851307114
101RCCM8ROCK CREEK-NEAR CLINTON12-09-2019DISCHARGE (KAF)5346115
102BONM8BLACKFOOT-NEAR BONNER12-09-2019DISCHARGE (KAF)172142121
103MYKO3MCKAY CREEK-NEAR PILOT ROCK12-09-2019DISCHARGE (KAF)4234122
104PARI1BOISE-NEAR PARMA12-09-2019DISCHARGE (KAF)293233126
105RIDI1WILLOW CREEK-RIRIE DAM12-09-2019INFLOW (KAF)1511134
106BIGI1BOISE-AT GLENWOOD BRIDGE12-09-2019DISCHARGE (KAF)14853278
107BULO3BULLY CREEK-BULLY CREEK DAM12-09-2019INFLOW (KAF)248281
108MACI1BIG LOST-MACKAY RESERVOIR NEAR MACKAY12-09-2019INFLOW (KAF)375786
109BFEI1KOOTENAI-AT BONNERS FERRY12-09-2019STAGE (FT)MMM
110DRMM8CLARK FORK-NR DRUMMOND12-09-2019DISCHARGE (KAF)157MM
111HOPI1PEND OREILLE-PEND OREILLE LAKE NR HOPE12-09-2019LAKE ELEVATION (FT)MMM
112SPOW1SPOKANE-AT SPOKANE12-09-2019DISCHARGE (KAF)787MM
113SJMI1ST JOE-AT ST MARIES12-09-2019STAGE (FT)MMM
114CIBW1COLUMBIA-AT INTL BOUNDARY12-09-2019DISCHARGE (KAF)17720MM
115LUCI1BOISE-LUCKY PEAK DAM12-09-2019INFLOW (KAF)220MM